PA3DZX-13 Weather Reports


time (UTC)temp
C
wind
direction
speed
KPH
gust
KPH
rain 1hr
cm
rain 24hr
cm
rain mn
cm
humidity
%
barometer
mb
20260905044023 12 222 9.7 17.7 0.00 0.00 0.00 84 1016.2
20260905042523 12 228 12.9 17.7 0.00 0.00 0.00 83 1016.2
20260905041022 12 233 9.7 20.9 0.00 0.00 0.00 83 1016.0
20260905035522 12 235 9.7 20.9 0.00 0.00 0.00 82 1016.0
20260905034022 12 229 9.7 17.7 0.00 0.00 0.00 82 1015.9
20260905032522 12 228 9.7 17.7 0.00 0.00 0.00 83 1015.8
20260905031022 12 225 9.7 20.9 0.00 0.00 0.00 82 1015.8
20260905025522 12 233 9.7 20.9 0.00 0.00 0.00 80 1015.8
20260905024022 13 224 9.7 17.7 0.00 0.00 0.00 80 1015.6
20260905022522 12 224 9.7 17.7 0.00 0.00 0.00 81 1015.6
20260905021022 12 223 9.7 17.7 0.00 0.00 0.00 81 1015.5
20260905015522 12 223 9.7 17.7 0.00 0.00 0.00 81 1015.4
20260905014022 13 226 9.7 17.7 0.00 0.00 0.00 80 1015.3
20260905012522 13 230 9.7 17.7 0.00 0.00 0.00 80 1015.3
20260905011022 13 227 9.7 17.7 0.00 0.00 0.00 79 1015.4
20260905005522 13 225 9.7 17.7 0.00 0.00 0.00 80 1015.4
20260905004021 13 227 9.7 17.7 0.00 0.00 0.00 80 1015.3
20260905002522 13 233 12.9 17.7 0.00 0.00 0.00 79 1015.2
20260905001021 13 234 12.9 20.9 0.00 0.00 0.00 79 1015.2
20260904235521 13 236 12.9 24.1 0.00 0.00 0.00 79 1014.9
20260904234020 13 239 12.9 20.9 0.00 0.00 0.00 80 1014.9
20260904232520 15 233 12.9 20.9 0.00 0.00 0.00 78 1014.8
20260904231019 15 235 12.9 24.1 0.00 0.00 0.00 79 1014.7
20260904225520 15 234 12.9 20.9 0.00 0.00 0.00 79 1014.7
20260904224018 15 235 12.9 20.9 0.00 0.00 0.00 80 1014.5
20260904222519 15 230 9.7 17.7 0.00 0.00 0.00 80 1014.4
20260904221018 15 233 9.7 17.7 0.00 0.00 0.00 80 1014.3
20260904215517 15 235 9.7 17.7 0.00 0.00 0.00 82 1014.2
20260904214016 15 239 12.9 17.7 0.00 0.00 0.00 83 1014.2
20260904212516 15 236 12.9 17.7 0.00 0.00 0.00 82 1014.2
20260904211015 15 244 9.7 17.7 0.00 0.00 0.00 83 1014.0
20260904205515 15 248 9.7 17.7 0.00 0.00 0.00 82 1014.0
20260904204014 15 258 9.7 20.9 0.00 0.00 0.00 80 1013.9
20260904202515 15 257 9.7 20.9 0.00 0.00 0.00 80 1013.8
20260904201014 15 258 9.7 17.7 0.00 0.00 0.00 81 1013.7
20260904195514 15 259 9.7 17.7 0.00 0.00 0.00 81 1013.5
20260904194012 15 272 9.7 20.9 0.00 0.00 0.00 81 1013.3
20260904192512 15 277 9.7 20.9 0.00 0.00 0.00 80 1013.1
20260904191012 15 280 12.9 38.6 0.00 0.00 0.00 79 1012.9
20260904185513 15 280 20.9 38.6 0.00 0.00 0.00 78 1012.8
20260904184011 16 268 20.9 35.4 0.00 0.00 0.00 76 1012.3
20260904182512 16 261 17.7 27.4 0.00 0.00 0.00 77 1012.1
20260904181010 16 265 12.9 27.4 0.00 0.00 0.00 79 1011.9
20260904175510 16 268 17.7 24.1 0.00 0.00 0.00 78 1012.0
20260904174010 16 264 17.7 32.2 0.00 0.00 0.00 81 1011.5
20260904172510 17 262 17.7 32.2 0.00 0.00 0.00 79 1011.3
20260904171009 17 263 20.9 35.4 0.00 0.00 0.00 80 1011.2
20260904165510 17 267 17.7 32.2 0.00 0.00 0.00 82 1011.4
20260904164009 17 260 17.7 35.4 0.00 0.00 0.00 84 1011.0
20260904162510 17 267 17.7 35.4 0.00 0.00 0.00 83 1010.8
20260904161009 17 265 12.9 35.4 0.00 0.00 0.00 85 1011.0
20260904155509 17 265 20.9 35.4 0.00 0.00 0.00 85 1011.0
20260904154008 17 262 24.1 35.4 0.00 0.00 0.00 86 1010.8
20260904152508 17 262 24.1 41.8 0.00 0.00 0.00 88 1010.7
20260904151008 16 258 24.1 35.4 0.08 0.00 0.00 91 1010.4
20260904145508 16 255 20.9 32.2 0.03 0.00 0.00 92 1010.2
20260904144007 16 246 24.1 35.4 0.00 0.00 0.00 93 1010.0
20260904142507 16 246 20.9 32.2 0.20 0.00 0.00 94 1009.6
20260904141007 16 247 24.1 32.2 0.51 0.00 0.00 93 1009.8
20260904135506 16 243 20.9 32.2 0.36 0.00 0.00 93 1010.0
20260904134005 16 245 17.7 32.2 0.18 0.00 0.00 93 1009.7
20260904132505 16 245 17.7 32.2 0.20 0.00 0.00 93 1009.6
20260904131004 16 261 12.9 24.1 0.41 0.00 0.00 94 1009.8
20260904125505 16 266 12.9 24.1 0.20 0.00 0.00 93 1009.7
20260904124003 16 267 12.9 24.1 0.08 0.00 0.00 92 1009.7
20260904122503 17 275 12.9 24.1 0.03 0.00 0.00 90 1009.5
20260904121002 17 277 12.9 32.2 0.10 0.00 0.00 90 1009.3
20260904115502 17 275 17.7 32.2 0.23 0.00 0.00 88 1009.5
20260904114001 18 274 24.1 46.7 0.74 0.00 0.00 91 1009.1
20260904112502 20 240 27.4 53.1 0.13 0.00 0.00 87 1008.8
20260904111000 20 232 35.4 53.1 0.00 0.00 0.00 80 1008.6
20260904105501 20 224 32.2 49.9 0.00 0.00 0.00 80 1008.6
20260904104000 20 227 24.1 38.6 0.00 0.00 0.00 85 1008.8
20260904102500 20 225 24.1 38.6 0.00 0.00 0.00 88 1008.8
20260904100959 18 230 24.1 38.6 0.05 0.00 0.00 91 1009.1
20260904095459 18 228 24.1 38.6 0.08 0.00 0.00 90 1009.2
20260904093958 18 228 24.1 38.6 0.08 0.00 0.00 90 1009.2
20260904092459 20 227 20.9 35.4 0.03 0.00 0.00 86 1009.0
20260904090958 20 236 27.4 41.8 0.00 0.00 0.00 83 1009.2
20260904085458 20 225 27.4 46.7 0.00 0.00 0.00 80 1009.0
20260904083957 20 222 27.4 46.7 0.00 0.00 0.00 81 1009.0
20260904082457 20 225 27.4 46.7 0.00 0.00 0.00 76 1009.4
20260904080957 20 227 27.4 41.8 0.00 0.00 0.00 76 1009.2
20260904075456 20 226 24.1 41.8 0.00 0.00 0.00 76 1009.4
20260904073955 20 216 24.1 38.6 0.00 0.00 0.00 77 1009.6
20260904072455 20 219 24.1 38.6 0.00 0.00 0.00 77 1009.6
20260904070955 20 228 27.4 41.8 0.00 0.00 0.00 77 1010.0
20260904065455 20 226 24.1 41.8 0.00 0.00 0.00 78 1010.2
20260904063954 20 222 20.9 32.2 0.00 0.00 0.00 79 1010.2
20260904062453 20 226 24.1 38.6 0.00 0.00 0.00 77 1010.2
20260904060953 20 222 24.1 38.6 0.00 0.00 0.00 78 1010.4
20260904055453 20 225 27.4 38.6 0.00 0.00 0.00 79 1010.5
20260904053952 20 224 24.1 41.8 0.00 0.00 0.00 80 1010.7
20260904052452 20 222 24.1 41.8 0.00 0.00 0.00 80 1010.9
20260904050952 20 225 20.9 35.4 0.00 0.00 0.00 82 1011.0
20260904045452 18 220 20.9 35.4 0.00 0.00 0.00 84 1011.2